GW0203 Weather Reports


Display with metric or nautical units.
time (UTC)temp
F
wind
direction
speed
MPH
gust
MPH
rain 1hr
in
rain 24hr
in
rain mn
in
humidity
%
barometer
mb
20260504081302 47 336 2.0 4.0 0.00 0.00 0.00 67 1011.1
20260504045721 45 201 2.0 3.0 0.00 0.00 0.00 65 1010.8
20260504044216 45 297 1.0 2.0 0.00 0.00 0.00 64 1011.2
20260504042713 46 331 1.0 5.0 0.00 0.00 0.00 62 1011.1
20260504041213 45 307 3.0 3.0 0.00 0.00 0.00 63 1011.0
20260504035709 45 319 0.0 3.0 0.00 0.00 0.00 64 1010.6
20260504034207 46 260 2.0 7.0 0.00 0.00 0.00 61 1010.5
20260504032705 46 318 3.0 6.0 0.00 0.00 0.00 62 1010.6
20260504031201 46 238 3.0 4.0 0.00 0.00 0.00 59 1010.5
20260504025657 46 277 1.0 3.0 0.00 0.00 0.00 58 1010.3
20260504024153 46 207 3.0 5.0 0.00 0.00 0.00 58 1010.4
20260504022648 47 234 0.0 5.0 0.00 0.00 0.00 58 1010.3
20260504021144 47 220 1.0 3.0 0.00 0.00 0.00 57 1010.4
20260504015640 47 180 1.0 5.0 0.00 0.00 0.00 57 1010.1
20260504014135 48 176 2.0 3.0 0.00 0.00 0.00 54 1010.1
20260504012633 48 195 0.0 3.0 0.00 0.00 0.00 52 1009.9
20260504011130 47 0 0.0 2.0 0.00 0.00 0.00 55 1009.7
20260504005630 48 342 1.0 3.0 0.00 0.00 0.00 48 1009.4
20260504004128 49 0 1.0 2.0 0.00 0.00 0.00 47 1009.3
20260504002624 50 355 6.0 6.0 0.00 0.00 0.00 44 1009.1
20260504001120 50 348 5.0 6.0 0.00 0.00 0.00 44 1008.9
20260503235619 51 11 1.0 5.0 0.00 0.00 0.00 43 1008.7
20260503234117 51 335 4.0 9.0 0.00 0.00 0.00 41 1008.6
20260503232613 52 335 5.0 11.0 0.00 0.00 0.00 39 1008.5
20260503231110 53 292 6.0 9.0 0.00 0.00 0.00 38 1008.3
20260503225608 53 343 3.0 25.0 0.00 0.00 0.00 37 1007.8
20260503224103 54 341 7.0 14.0 0.00 0.00 0.00 37 1007.6
20260503222600 53 322 6.0 16.0 0.00 0.00 0.00 39 1007.5
20260503221058 53 306 12.0 14.0 0.00 0.00 0.00 40 1007.2
20260503215554 53 301 8.0 12.0 0.00 0.00 0.00 39 1007.2
20260503214051 53 275 4.0 18.0 0.00 0.00 0.00 40 1007.0
20260503212550 53 332 2.0 17.0 0.00 0.00 0.00 40 1006.6
20260503211045 54 315 3.0 20.0 0.00 0.00 0.00 41 1006.4
20260503205541 53 298 16.0 26.0 0.00 0.00 0.00 39 1006.2
20260503204037 54 231 6.0 13.0 0.00 0.00 0.00 42 1005.9
20260503202535 54 331 5.0 24.0 0.00 0.00 0.00 42 1006.0
20260503201033 55 326 15.0 18.0 0.00 0.00 0.00 38 1005.7
20260503195530 54 329 11.0 24.0 0.00 0.00 0.00 40 1005.6
20260503194029 55 9 12.0 26.0 0.00 0.00 0.00 41 1005.7
20260503192529 53 304 5.0 13.0 0.00 0.00 0.00 43 1005.7
20260503191025 53 306 4.0 9.0 0.00 0.00 0.00 43 1005.9
20260503185521 53 278 2.0 13.0 0.00 0.00 0.00 42 1005.7
20260503184019 53 340 6.0 15.0 0.00 0.00 0.00 43 1005.8
20260503182517 53 336 9.0 12.0 0.00 0.00 0.00 45 1005.6
20260503181013 54 324 7.0 11.0 0.00 0.00 0.00 45 1005.9
20260503175512 53 330 12.0 20.0 0.00 0.00 0.00 48 1005.8
20260503174008 53 339 4.0 16.0 0.00 0.00 0.00 47 1005.6
20260503172504 52 11 7.0 22.0 0.00 0.00 0.00 49 1005.8
20260503171000 53 314 4.0 19.0 0.00 0.00 0.00 50 1006.0
20260503150936 48 10 5.0 23.0 0.00 0.00 0.00 67 1005.7